When you browse on this site, cookies collect data to enhance your experience and personalize the content and advertising you see.
Visit our Privacy Policy to learn more. By continuing to use the site, you agree to this use of cookies and data.
  • In Deutschland
  • Länderverzeichnis
  • Für 7 Tage
  • Wassertemperatur
  • Satellitenkarten
  • Wetterkarte
  • Widgets
  • user-avatar
    Anmelden

    Stündliche Wetter Bregenz

    Heute, 19 Februar, Dienstag

    Zeit Temperatur Niederschläge Wind Luftdruck Luftfeuchtigkeit
    00:00 -2°C° 0 mm 2 m/S 646 mmHg 66%
    01:00 -2°C° 0 mm 3 m/S 646 mmHg 62%
    02:00 -3°C° 0 mm 2 m/S 646 mmHg 64%
    03:00 -3°C° 0 mm 2 m/S 646 mmHg 65%
    04:00 -4°C° 0 mm 2 m/S 646 mmHg 67%
    05:00 -4°C° 0 mm 2 m/S 646 mmHg 67%
    06:00 -4°C° 0 mm 2 m/S 646 mmHg 68%
    07:00 -4°C° 0 mm 2 m/S 646 mmHg 67%
    08:00 -2°C° 0 mm 2 m/S 647 mmHg 67%
    09:00 -1°C° 0 mm 2 m/S 647 mmHg 68%
    10:00 +3°C° 0 mm 1 m/S 647 mmHg 69%
    11:00 +4°C° 0 mm 1 m/S 648 mmHg 68%
    12:00 +5°C° 0 mm 1 m/S 648 mmHg 68%
    13:00 +7°C° 0 mm 1 m/S 648 mmHg 68%
    14:00 +6°C° 0 mm 1 m/S 648 mmHg 71%
    15:00 +6°C° 0 mm 1 m/S 648 mmHg 73%
    16:00 +6°C° 0 mm 1 m/S 648 mmHg 76%
    17:00 +4°C° 0 mm 1 m/S 648 mmHg 79%
    18:00 +3°C° 0 mm 1 m/S 647 mmHg 82%
    19:00 +1°C° 0 mm 1 m/S 647 mmHg 86%
    20:00 +1°C° 0 mm 1 m/S 647 mmHg 85%
    21:00 0°C° 0 mm 1 m/S 648 mmHg 84%
    22:00 -2°C° 0 mm 2 m/S 648 mmHg 84%
    23:00 -3°C° 0 mm 2 m/S 648 mmHg 83%

    Morgen, 20 Februar, Mittwoch

    Zeit Temperatur Niederschläge Wind Luftdruck Luftfeuchtigkeit
    00:00 -3°C° 0 mm 2 m/S 648 mmHg 82%
    01:00 -3°C° 0 mm 2 m/S 648 mmHg 81%
    02:00 -3°C° 0 mm 2 m/S 648 mmHg 81%
    03:00 -3°C° 0 mm 2 m/S 648 mmHg 81%
    04:00 -4°C° 0 mm 2 m/S 648 mmHg 81%
    05:00 -4°C° 0 mm 2 m/S 648 mmHg 80%
    06:00 -4°C° 0 mm 2 m/S 648 mmHg 80%
    07:00 -4°C° 0 mm 2 m/S 648 mmHg 80%
    08:00 0°C° 0 mm 1 m/S 648 mmHg 77%
    09:00 +1°C° 0 mm 1 m/S 649 mmHg 75%
    10:00 +3°C° 0 mm 1 m/S 649 mmHg 72%
    11:00 +3°C° 0 mm 0 m/S 650 mmHg 70%
    12:00 +4°C° 0 mm 0 m/S 650 mmHg 68%
    13:00 +6°C° 0 mm 0 m/S 650 mmHg 66%
    14:00 +5°C° 0 mm 0 m/S 650 mmHg 67%
    15:00 +5°C° 0 mm 0 m/S 650 mmHg 69%
    16:00 +5°C° 0 mm 0 m/S 650 mmHg 71%
    17:00 +4°C° 0 mm 1 m/S 650 mmHg 75%
    18:00 +3°C° 0 mm 1 m/S 650 mmHg 79%
    19:00 +1°C° 0 mm 1 m/S 650 mmHg 83%
    20:00 +1°C° 0 mm 1 m/S 650 mmHg 83%
    21:00 -2°C° 0 mm 2 m/S 650 mmHg 83%
    22:00 -2°C° 0 mm 2 m/S 650 mmHg 83%
    23:00 -2°C° 0 mm 2 m/S 650 mmHg 82%

    übermorgen, 21 Februar, Donnerstag

    Zeit Temperatur Niederschläge Wind Luftdruck Luftfeuchtigkeit
    00:00 -3°C° 0 mm 2 m/S 650 mmHg 80%
    01:00 -3°C° 0 mm 2 m/S 651 mmHg 79%
    02:00 -3°C° 0 mm 2 m/S 651 mmHg 78%
    03:00 -3°C° 0 mm 2 m/S 651 mmHg 77%
    04:00 -3°C° 0 mm 2 m/S 650 mmHg 76%
    05:00 -3°C° 0 mm 2 m/S 651 mmHg 76%
    06:00 -3°C° 0 mm 2 m/S 651 mmHg 75%
    07:00 -3°C° 0 mm 2 m/S 651 mmHg 75%
    08:00 0°C° 0 mm 1 m/S 651 mmHg 72%
    09:00 +2°C° 0 mm 1 m/S 652 mmHg 70%
    10:00 +4°C° 0 mm 1 m/S 653 mmHg 67%
    11:00 +5°C° 0 mm 1 m/S 653 mmHg 65%
    12:00 +6°C° 0 mm 1 m/S 653 mmHg 64%
    13:00 +6°C° 0 mm 0 m/S 653 mmHg 62%
    14:00 +6°C° 0 mm 0 m/S 653 mmHg 63%
    15:00 +6°C° 0 mm 0 m/S 653 mmHg 65%
    16:00 +6°C° 0 mm 0 m/S 653 mmHg 67%
    17:00 +5°C° 0 mm 1 m/S 653 mmHg 71%
    18:00 +3°C° 0 mm 1 m/S 653 mmHg 75%
    19:00 +2°C° 0 mm 1 m/S 653 mmHg 79%
    20:00 +1°C° 0 mm 1 m/S 653 mmHg 79%
    21:00 +1°C° 0 mm 1 m/S 654 mmHg 79%
    22:00 -1°C° 0 mm 2 m/S 654 mmHg 79%
    23:00 -2°C° 0 mm 2 m/S 654 mmHg 78%

    22 Februar, Freitag

    Zeit Temperatur Niederschläge Wind Luftdruck Luftfeuchtigkeit
    00:00 -2°C° 0 mm 2 m/S 654 mmHg 78%
    01:00 -2°C° 0 mm 2 m/S 654 mmHg 77%
    02:00 -2°C° 0 mm 2 m/S 654 mmHg 77%
    03:00 0°C° 0 mm 1 m/S 654 mmHg 77%
    04:00 -1°C° 0 mm 1 m/S 654 mmHg 77%
    05:00 -1°C° 0 mm 1 m/S 654 mmHg 78%
    06:00 -1°C° 0 mm 1 m/S 654 mmHg 78%
    07:00 -1°C° 0 mm 1 m/S 654 mmHg 79%
    08:00 +1°C° 0 mm 1 m/S 654 mmHg 76%
    09:00 +1°C° 0 mm 0 m/S 655 mmHg 73%
    10:00 +3°C° 0 mm 0 m/S 655 mmHg 70%
    11:00 +4°C° 0 mm 0 m/S 655 mmHg 69%
    12:00 +6°C° 0 mm 1 m/S 655 mmHg 68%
    13:00 +6°C° 0 mm 1 m/S 655 mmHg 68%
    14:00 +6°C° 0 mm 1 m/S 655 mmHg 69%
    15:00 +6°C° 0 mm 1 m/S 655 mmHg 70%
    16:00 +5°C° 0 mm 2 m/S 655 mmHg 72%
    17:00 +5°C° 0 mm 1 m/S 655 mmHg 78%
    18:00 +3°C° 0 mm 1 m/S 655 mmHg 84%
    19:00 +2°C° 0 mm 1 m/S 654 mmHg 90%
    20:00 +1°C° 0 mm 1 m/S 655 mmHg 90%
    21:00 +1°C° 0 mm 1 m/S 655 mmHg 90%
    22:00 0°C° 0 mm 1 m/S 655 mmHg 90%
    23:00 0°C° 0 mm 1 m/S 654 mmHg 88%

    23 Februar, Samstag

    Zeit Temperatur Niederschläge Wind Luftdruck Luftfeuchtigkeit
    00:00 0°C° 0 mm 1 m/S 654 mmHg 87%
    01:00 -1°C° 0 mm 1 m/S 654 mmHg 85%
    02:00 -1°C° 0 mm 1 m/S 654 mmHg 83%
    03:00 -1°C° 0 mm 1 m/S 653 mmHg 82%
    04:00 -1°C° 0 mm 1 m/S 653 mmHg 80%
    05:00 -1°C° 0 mm 1 m/S 653 mmHg 78%
    06:00 -1°C° 0 mm 1 m/S 653 mmHg 75%
    07:00 -1°C° 0 mm 1 m/S 653 mmHg 73%
    08:00 +1°C° 0 mm 1 m/S 653 mmHg 70%
    09:00 +2°C° 0 mm 1 m/S 654 mmHg 66%
    10:00 +3°C° 0 mm 0 m/S 655 mmHg 62%
    11:00 +4°C° 0 mm 0 m/S 655 mmHg 60%
    12:00 +6°C° 0 mm 0 m/S 655 mmHg 59%
    13:00 +7°C° 0 mm 0 m/S 655 mmHg 57%
    14:00 +8°C° 0 mm 1 m/S 655 mmHg 60%
    15:00 +7°C° 0 mm 1 m/S 655 mmHg 64%
    16:00 +6°C° 0 mm 2 m/S 654 mmHg 68%
    17:00 +5°C° 0 mm 1 m/S 654 mmHg 75%
    18:00 +3°C° 0 mm 1 m/S 654 mmHg 82%
    19:00 +2°C° 0 mm 1 m/S 654 mmHg 88%
    20:00 +1°C° 0 mm 1 m/S 654 mmHg 87%
    21:00 +1°C° 0 mm 1 m/S 654 mmHg 85%
    22:00 +1°C° 0 mm 1 m/S 654 mmHg 83%
    23:00 +1°C° 0 mm 1 m/S 654 mmHg 81%

    24 Februar, Sonntag

    Zeit Temperatur Niederschläge Wind Luftdruck Luftfeuchtigkeit
    00:00 0°C° 0 mm 1 m/S 653 mmHg 80%
    01:00 0°C° 0 mm 1 m/S 653 mmHg 78%
    02:00 0°C° 0 mm 1 m/S 653 mmHg 78%
    03:00 0°C° 0 mm 1 m/S 653 mmHg 77%
    04:00 0°C° 0 mm 1 m/S 653 mmHg 77%
    05:00 -1°C° 0 mm 1 m/S 653 mmHg 78%
    06:00 -1°C° 0 mm 1 m/S 652 mmHg 78%
    07:00 -1°C° 0 mm 1 m/S 652 mmHg 79%
    08:00 0°C° 0 mm 0 m/S 653 mmHg 74%
    09:00 +1°C° 0 mm 0 m/S 654 mmHg 70%
    10:00 +3°C° 0 mm 0 m/S 654 mmHg 65%
    11:00 +5°C° 0 mm 1 m/S 654 mmHg 62%
    12:00 +6°C° 0 mm 1 m/S 654 mmHg 60%
    13:00 +7°C° 0 mm 1 m/S 655 mmHg 57%
    14:00 +7°C° 0 mm 1 m/S 654 mmHg 59%
    15:00 +6°C° 0 mm 2 m/S 654 mmHg 62%
    16:00 +7°C° 0 mm 2 m/S 654 mmHg 64%
    17:00 +5°C° 0 mm 2 m/S 654 mmHg 70%
    18:00 +4°C° 0 mm 1 m/S 654 mmHg 77%
    19:00 +2°C° 0 mm 1 m/S 653 mmHg 84%
    20:00 +2°C° 0 mm 1 m/S 653 mmHg 82%
    21:00 +1°C° 0 mm 1 m/S 654 mmHg 81%
    22:00 +1°C° 0 mm 1 m/S 654 mmHg 79%
    23:00 +1°C° 0 mm 1 m/S 653 mmHg 77%
    Mehr zeigen